Wind_Speed
16 15 15 15 15 14 14 14 15 15 16 15 15 15 15 15 14 13 13 13 13 13 13 13 13 12 11 10 10 10 10 9 8 6 6 4 3 2 2 2 1 0 1 2
16 15 15 15 15 14 14 14 14 15 15 15 15 15 15 15 14 13 13 13 14 14 14 13 13 13 11 11 11 11 11 10 9 7 6 6 4 3 3 2 1 1 1 1
16 16 16 16 15 14 14 15 14 14 14 15 15 14 15 14 14 14 13 13 14 14 14 14 14 13 13 12 11 11 12 11 10 8 7 6 5 4 4 2 2 1 1 1
16 16 16 16 15 15 15 15 15 14 14 14 14 13 14 14 13 13 13 13 13 14 15 15 15 14 13 12 11 11 12 12 11 9 8 8 7 5 4 3 2 2 1 2
16 16 17 16 16 16 16 15 15 14 15 15 14 14 13 13 13 13 13 13 13 14 16 16 15 14 14 13 12 12 12 13 12 10 9 9 7 7 5 4 3 2 2 1
17 17 17 17 16 16 16 16 16 16 15 15 14 15 13 12 12 12 13 13 13 14 15 16 15 15 14 14 14 13 13 13 13 11 10 10 9 8 6 5 4 3 2 1
18 18 17 17 16 16 16 15 16 16 15 14 13 13 12 11 11 12 13 13 13 13 14 16 15 15 14 14 15 15 15 14 14 13 12 11 9 8 7 7 5 4 3 2
18 17 17 17 17 16 16 16 16 16 14 13 12 12 11 12 12 13 13 12 12 13 14 14 16 15 15 15 15 16 16 15 15 14 12 11 11 9 8 7 7 6 4 3
18 18 17 17 17 17 17 16 15 15 14 14 13 12 11 12 12 12 13 12 12 13 14 15 15 15 16 16 15 15 16 15 15 15 14 12 12 10 9 8 8 7 6 4
19 18 17 17 17 17 17 16 15 15 14 14 13 12 12 12 12 12 12 12 13 14 14 15 16 16 17 17 16 16 16 15 16 16 14 13 12 11 10 9 9 8 7 6
19 19 18 17 16 16 16 16 16 16 15 14 12 11 12 11 12 12 12 12 12 13 14 15 16 16 17 17 17 16 16 16 16 16 14 13 12 12 11 10 10 10 9 7
19 19 19 18 17 16 16 16 16 15 15 14 13 11 11 11 11 12 12 12 12 13 14 15 16 17 17 18 18 17 16 16 16 16 15 14 13 12 12 10 10 10 10 9
20 20 20 19 18 17 16 16 15 15 15 14 13 11 11 10 10 10 11 11 11 13 13 15 16 17 18 18 18 17 16 16 16 16 15 14 13 13 12 11 11 11 11 10
22 21 20 19 18 17 16 16 16 15 15 13 11 11 11 10 10 10 10 11 11 12 13 14 15 17 18 19 18 18 16 16 16 16 15 14 13 13 12 11 11 12 12 11
23 22 21 19 19 19 18 17 17 15 14 13 12 12 11 12 11 11 11 11 11 11 12 13 14 16 18 18 18 18 17 17 16 16 16 14 13 12 12 11 11 11 11 12
24 23 22 21 20 20 19 18 17 16 15 14 13 13 13 13 13 12 12 12 12 12 12 13 14 15 17 17 18 18 18 18 17 16 16 16 14 13 12 12 12 12 12 12
25 24 23 22 21 20 19 17 17 17 15 14 13 13 15 14 14 13 13 13 13 13 14 13 14 15 17 17 18 18 19 19 18 17 16 15 15 14 14 13 13 13 12 13
27 26 25 23 22 22 18 17 17 17 16 14 13 14 14 14 14 13 13 13 13 14 14 14 14 16 17 18 18 18 19 19 19 18 17 17 16 15 14 14 14 13 13 12
28 27 26 25 24 21 19 18 17 16 15 14 14 14 14 13 12 12 12 12 13 13 14 14 16 17 17 17 18 19 19 19 19 19 18 17 17 16 15 15 15 14 14 13
28 28 27 26 25 22 18 18 18 17 16 15 15 14 13 13 11 11 12 12 12 13 14 14 16 17 17 18 18 19 19 19 19 18 18 18 18 18 17 16 16 16 15 15
30 29 29 27 26 22 19 19 18 18 15 16 16 15 14 13 13 13 13 13 13 13 14 15 17 17 17 18 18 19 19 20 20 19 18 18 18 18 17 17 17 17 17 16
31 30 29 28 26 22 20 19 19 17 17 17 16 15 14 13 13 13 13 13 13 14 15 15 17 17 17 17 18 18 19 20 19 19 18 18 18 17 17 17 17 17 17 17
31 30 28 28 26 23 22 21 20 19 19 18 17 16 15 14 14 14 14 14 14 14 15 15 16 17 17 17 17 18 18 18 18 18 18 18 18 17 17 17 17 18 17 17
31 30 30 29 27 26 24 23 23 21 20 20 19 18 16 15 14 14 15 15 15 14 15 15 16 16 17 17 17 18 18 18 19 18 18 19 18 17 18 18 18 18 18 18
31 31 31 29 27 27 26 25 24 23 22 21 20 19 18 16 15 15 15 15 16 15 15 15 15 16 16 16 17 17 17 16 16 17 17 18 17 17 17 17 17 18 19 19
31 31 31 29 28 28 27 25 25 24 23 22 21 20 19 17 16 16 15 15 15 16 16 15 15 16 16 16 16 17 17 17 16 16 16 16 17 17 18 17 18 19 18 18
Wind_Direction
264 265 268 269 269 269 269 270 271 270 271 270 270 269 266 266 266 264 263 260 258 254 252 243 238 235 232 229 222 218 219 212 204 205 203 194 187 179 172 176 182 121 17 26
264 264 266 269 269 271 271 272 272 272 273 270 269 268 266 266 264 263 262 259 257 253 247 240 234 231 227 227 220 214 218 214 207 203 201 192 189 189 177 175 175 132 53 43
263 262 264 267 269 270 272 273 273 272 271 270 268 266 267 266 263 262 261 258 256 250 245 241 237 232 225 223 218 215 209 204 204 203 198 192 192 195 192 184 179 154 100 70
260 260 262 264 267 269 271 273 273 273 271 269 267 264 265 265 264 262 261 258 255 249 243 238 233 230 221 220 217 211 205 204 204 205 204 198 195 193 195 191 179 155 123 90
258 260 260 261 264 265 268 270 272 274 272 269 269 268 264 264 261 263 262 257 252 248 242 238 230 227 220 218 217 210 207 206 206 206 207 204 202 199 198 195 187 177 150 115
256 258 258 259 260 262 265 268 270 272 273 271 270 270 266 262 261 261 260 256 252 245 238 234 227 223 221 222 219 212 210 208 206 205 206 203 202 199 199 198 198 191 185 158
258 258 257 257 258 260 263 267 270 271 271 272 270 269 269 265 263 262 262 256 248 238 233 228 221 218 219 219 217 213 212 211 207 206 206 205 205 204 205 202 202 197 198 185
256 255 254 254 256 260 264 266 268 270 270 271 269 269 269 266 263 259 260 258 250 236 229 224 220 217 219 217 217 215 214 213 209 206 207 211 209 209 206 203 204 204 201 188
254 254 252 251 254 257 261 262 263 264 268 270 271 272 270 267 264 259 257 254 245 233 229 227 223 222 221 218 216 213 211 212 214 211 211 213 210 208 207 207 206 206 204 198
252 252 250 251 251 253 258 259 258 262 267 270 270 271 270 265 262 260 256 251 242 231 230 229 224 224 220 217 214 211 209 211 214 211 210 214 212 211 212 213 212 211 209 205
251 249 247 248 252 255 256 256 257 261 266 272 274 271 266 264 259 254 251 248 243 233 229 226 222 222 217 214 212 210 209 212 213 209 211 215 215 214 214 213 214 214 213 211
248 246 244 246 249 253 254 256 257 260 265 270 271 269 264 262 260 257 252 249 243 236 228 224 221 218 214 211 211 211 212 212 209 208 212 214 213 214 214 215 217 218 218 217
243 243 243 243 247 250 253 256 257 259 262 265 262 260 258 258 256 254 250 244 239 235 226 221 219 215 213 212 214 214 214 212 210 210 212 213 213 214 215 217 221 224 224 226
240 242 244 246 249 250 250 253 254 257 262 260 257 255 254 253 251 250 249 246 242 238 227 220 219 216 213 213 214 213 213 213 210 209 209 211 211 214 216 220 225 229 230 231
238 240 241 242 244 245 246 247 249 253 258 254 253 252 251 249 247 249 249 249 243 239 230 224 222 215 212 213 212 212 212 213 211 212 211 211 211 212 215 221 226 231 233 235
237 240 239 239 242 244 244 244 245 249 251 249 248 248 248 246 246 248 250 248 244 241 236 228 221 215 212 212 212 212 212 214 215 215 215 214 215 217 221 226 230 234 236 239
237 239 239 239 241 243 243 244 245 247 249 249 250 249 248 248 248 247 247 245 239 239 234 229 221 216 213 213 213 213 214 216 216 216 217 217 218 222 227 232 236 237 240 243
237 238 239 240 238 241 242 242 244 245 245 246 247 247 249 247 246 244 244 242 237 237 235 230 226 223 219 218 218 219 219 221 221 220 221 222 222 226 231 234 237 239 243 246
235 237 238 238 239 240 241 243 244 245 243 245 244 245 245 244 241 240 244 244 237 235 236 234 231 228 226 223 222 221 221 223 224 224 225 227 228 230 234 237 240 242 246 248
233 236 237 237 238 239 239 241 242 242 240 241 242 243 242 239 237 237 239 241 239 234 235 236 234 231 230 227 226 225 224 225 225 226 228 230 232 234 238 240 240 243 246 251
231 234 235 236 237 235 234 237 239 239 238 239 241 242 241 238 236 235 237 239 239 237 236 236 234 231 231 228 227 226 227 226 226 228 230 232 234 238 241 242 243 244 247 252
230 232 234 234 234 232 233 235 236 237 236 237 238 240 239 236 237 239 239 239 240 240 238 236 234 231 230 228 227 227 227 227 228 229 231 233 235 238 241 245 245 246 248 252
230 232 233 233 233 232 233 233 233 234 235 235 236 237 237 237 240 241 240 238 239 238 235 234 233 230 228 227 226 228 227 226 228 230 232 235 238 240 242 245 247 251 253 255
231 231 230 231 232 232 232 232 231 232 234 234 235 236 237 239 240 241 239 237 237 235 233 231 231 229 227 227 226 227 226 227 229 230 231 235 239 243 246 247 250 252 253 256
230 230 230 230 229 229 230 231 230 230 231 232 233 235 236 239 239 239 240 239 237 234 230 228 227 225 225 228 226 225 225 228 230 231 235 239 242 243 244 247 248 250 252 254
229 230 229 228 227 228 228 229 230 230 232 232 231 233 236 237 236 237 239 239 236 232 229 226 224 224 225 226 228 227 229 232 235 238 239 241 243 244 245 247 249 252 254 255
Height
5844 5845 5845 5845 5845 5846 5846 5847 5847 5847 5847 5847 5848 5848 5848 5848 5848 5849 5849 5849 5850 5851 5851 5852 5853 5854 5856 5857 5858 5859 5861 5862 5863 5864 5865 5866 5866 5867 5867 5868 5868 5868 5867 5867
5841 5842 5842 5842 5842 5843 5843 5843 5843 5844 5844 5844 5844 5845 5845 5845 5845 5846 5846 5846 5847 5848 5849 5849 5850 5852 5853 5855 5856 5858 5859 5860 5862 5863 5864 5865 5866 5867 5867 5868 5868 5868 5867 5867
5838 5839 5839 5839 5839 5840 5840 5840 5840 5840 5840 5841 5842 5842 5842 5842 5842 5843 5843 5843 5844 5845 5846 5847 5848 5849 5851 5852 5854 5856 5857 5859 5861 5862 5863 5864 5865 5866 5867 5867 5868 5868 5867 5867
5834 5835 5835 5836 5836 5836 5837 5837 5837 5837 5837 5838 5839 5839 5839 5839 5839 5839 5840 5840 5841 5842 5843 5844 5845 5847 5848 5850 5852 5854 5856 5858 5859 5861 5862 5863 5864 5866 5867 5867 5867 5867 5867 5867
5831 5831 5832 5832 5833 5833 5833 5833 5834 5834 5834 5835 5835 5836 5837 5836 5836 5837 5837 5837 5838 5839 5840 5841 5842 5844 5846 5848 5850 5852 5854 5856 5858 5859 5861 5862 5864 5865 5866 5867 5867 5867 5867 5867
5827 5827 5828 5829 5829 5829 5830 5830 5830 5830 5831 5832 5832 5832 5834 5833 5833 5834 5834 5834 5834 5835 5837 5838 5840 5842 5844 5845 5847 5850 5852 5854 5856 5858 5859 5861 5863 5864 5865 5866 5867 5867 5867 5867
5823 5824 5824 5825 5826 5826 5827 5828 5828 5827 5828 5829 5829 5829 5831 5830 5830 5830 5830 5830 5831 5832 5833 5835 5837 5839 5841 5843 5845 5848 5850 5852 5854 5856 5858 5860 5862 5863 5864 5865 5866 5866 5867 5867
5818 5820 5821 5821 5823 5823 5823 5825 5826 5825 5825 5826 5826 5826 5828 5828 5827 5827 5827 5828 5828 5829 5831 5832 5835 5836 5839 5841 5843 5845 5848 5850 5852 5854 5857 5859 5860 5862 5863 5864 5865 5866 5866 5867
5814 5816 5817 5818 5819 5820 5820 5820 5822 5822 5822 5823 5823 5824 5825 5824 5824 5824 5825 5825 5826 5827 5828 5830 5832 5834 5836 5838 5841 5843 5845 5848 5850 5853 5855 5857 5859 5860 5862 5863 5864 5865 5866 5866
5810 5812 5813 5814 5815 5816 5817 5818 5818 5819 5819 5820 5821 5821 5822 5821 5821 5822 5822 5822 5823 5824 5825 5827 5829 5831 5834 5836 5838 5841 5843 5846 5848 5851 5853 5855 5857 5859 5860 5862 5863 5864 5865 5866
5805 5807 5809 5810 5812 5813 5814 5815 5815 5816 5816 5817 5818 5821 5819 5819 5818 5819 5819 5820 5820 5821 5823 5824 5826 5828 5831 5833 5836 5838 5841 5844 5846 5848 5851 5853 5855 5857 5859 5860 5862 5863 5864 5865
5801 5803 5804 5807 5808 5809 5810 5811 5812 5813 5814 5814 5815 5819 5815 5816 5816 5816 5816 5817 5818 5819 5820 5821 5823 5826 5828 5831 5834 5836 5839 5841 5844 5846 5849 5851 5853 5855 5857 5859 5860 5862 5863 5864
5796 5798 5801 5802 5806 5807 5807 5808 5809 5810 5810 5810 5811 5816 5813 5813 5813 5813 5814 5815 5815 5816 5818 5819 5821 5823 5826 5829 5832 5834 5837 5840 5842 5844 5847 5849 5851 5853 5855 5857 5859 5860 5862 5863
5791 5793 5797 5800 5801 5802 5803 5805 5805 5806 5807 5808 5809 5810 5810 5810 5810 5811 5812 5813 5813 5814 5815 5817 5819 5821 5824 5826 5829 5832 5835 5837 5840 5842 5845 5847 5849 5852 5854 5855 5857 5858 5860 5861
5786 5788 5791 5794 5795 5797 5799 5800 5801 5802 5804 5805 5806 5807 5807 5807 5808 5809 5809 5810 5811 5812 5813 5815 5817 5819 5821 5824 5827 5830 5833 5835 5838 5840 5843 5845 5847 5850 5852 5853 5855 5856 5858 5859
5781 5784 5786 5789 5791 5792 5794 5796 5798 5799 5800 5801 5802 5804 5804 5804 5805 5806 5807 5808 5809 5810 5811 5813 5815 5817 5819 5822 5825 5827 5830 5833 5836 5838 5840 5843 5845 5848 5850 5851 5853 5854 5856 5857
5776 5779 5782 5784 5786 5788 5790 5793 5794 5795 5797 5798 5799 5801 5800 5801 5802 5803 5804 5805 5806 5807 5809 5811 5812 5814 5817 5820 5822 5825 5828 5831 5833 5836 5838 5840 5843 5845 5847 5849 5851 5852 5853 5854
5770 5773 5776 5779 5782 5783 5789 5789 5790 5791 5793 5795 5796 5797 5797 5798 5799 5800 5801 5802 5803 5805 5807 5808 5810 5812 5814 5817 5819 5822 5824 5827 5830 5833 5835 5838 5840 5842 5844 5846 5848 5849 5850 5851
5764 5767 5770 5773 5776 5779 5783 5785 5786 5788 5790 5791 5792 5793 5794 5795 5796 5797 5798 5799 5801 5802 5804 5805 5807 5809 5811 5813 5816 5819 5822 5825 5828 5830 5833 5835 5837 5839 5841 5843 5844 5846 5847 5848
5758 5761 5765 5768 5771 5774 5780 5781 5781 5784 5786 5788 5788 5790 5791 5792 5794 5795 5795 5796 5798 5799 5801 5802 5804 5806 5808 5810 5813 5816 5818 5821 5824 5827 5829 5831 5834 5836 5838 5839 5841 5842 5844 5845
5751 5754 5758 5762 5765 5770 5774 5776 5778 5781 5784 5784 5785 5786 5787 5789 5790 5792 5792 5793 5794 5796 5797 5799 5800 5802 5804 5807 5809 5812 5815 5818 5821 5823 5825 5828 5830 5832 5834 5836 5837 5839 5840 5841
5745 5748 5752 5756 5760 5767 5769 5771 5774 5777 5778 5780 5781 5783 5784 5785 5786 5788 5789 5790 5791 5793 5794 5795 5797 5799 5801 5803 5806 5809 5811 5814 5816 5819 5821 5824 5826 5828 5830 5832 5833 5835 5836 5837
5738 5743 5747 5752 5758 5761 5763 5766 5769 5771 5773 5775 5777 5779 5780 5782 5783 5784 5785 5786 5788 5789 5790 5792 5793 5796 5798 5800 5803 5805 5808 5810 5813 5815 5817 5820 5822 5824 5826 5827 5829 5831 5832 5833
5732 5736 5741 5745 5750 5754 5757 5760 5763 5766 5769 5771 5773 5775 5777 5778 5779 5780 5782 5783 5784 5785 5787 5788 5790 5792 5795 5797 5799 5802 5804 5807 5809 5811 5814 5816 5818 5820 5821 5823 5825 5826 5828 5829
5725 5730 5734 5739 5744 5747 5751 5754 5757 5761 5763 5766 5768 5770 5772 5774 5775 5777 5778 5779 5781 5782 5783 5785 5787 5789 5792 5794 5796 5798 5801 5803 5805 5807 5810 5812 5814 5815 5817 5819 5820 5822 5823 5824
5719 5723 5728 5733 5738 5741 5745 5748 5752 5755 5758 5761 5763 5766 5768 5770 5771 5773 5774 5775 5777 5779 5780 5782 5784 5786 5789 5791 5793 5795 5797 5800 5802 5804 5806 5808 5809 5811 5813 5814 5816 5817 5818 5819